{"data":{"norad_id":68101,"epoch":"2026-05-25T03:12:58.747392Z","epoch_age_seconds":63345,"freshness":"FRESH","line1":"1 68101U 26044A   26145.13401328  .00022424  00000+0  69466-3 0  9999","line2":"2 68101  97.2851 105.6931 0001005  71.2252 288.9100 15.33453801 13296","mean_motion":15.33453801,"eccentricity":0.0001005,"inclination_deg":97.2851,"raan_deg":105.6931,"arg_perigee_deg":71.2252,"mean_anomaly_deg":288.91,"bstar":0.00069466,"rev_number":1329,"period_min":93.905665697978,"perigee_km":464.82920179351,"apogee_km":466.2047762453,"semimajor_km":6843.6539890194,"source":"CELESTRAK","updated_at":"2026-05-25T13:38:21.840427Z"}}